CAPE
0 0 0 0 57 0 30 104 0 0 276 255 205 124 220 97 185 128 109 184 156 218 243 228 237 290 335 315 231 282 466 464 501 424 549 683 660 888 976 982 1207 832 1449 1331
0 0 0 0 0 0 0 0 0 85 261 205 116 140 135 140 194 221 131 156 139 123 213 171 189 259 253 308 219 319 339 387 388 467 504 672 742 794 995 1006 1193 1291 1278 1478
0 0 0 0 0 0 0 0 0 0 203 193 348 164 292 253 134 206 209 177 105 126 62 164 233 242 250 287 234 247 315 223 511 402 348 419 637 945 794 869 1023 1188 1303 1373
0 0 0 0 0 0 0 0 0 0 72 46 305 26 62 340 294 143 191 176 176 138 112 60 217 250 257 286 267 218 236 150 365 627 457 466 500 447 730 942 989 845 1161 1275
0 0 0 0 0 0 0 0 3 85 97 33 142 53 17 194 198 289 232 133 172 124 109 105 94 312 357 362 276 193 207 223 470 365 407 620 532 704 1113 1023 812 825 826 660
0 0 0 0 0 0 0 2 61 62 69 44 28 44 2 98 274 197 254 250 85 144 148 133 134 293 386 445 375 274 298 287 456 378 320 366 515 580 803 819 683 783 969 900
0 0 0 0 0 0 10 65 75 64 56 20 12 16 11 38 69 108 140 191 196 106 137 180 162 165 326 379 396 377 356 318 330 364 365 251 611 633 412 684 772 853 897 926
0 0 0 0 0 2 39 117 20 8 0 0 2 13 11 65 62 128 127 103 205 265 137 180 197 194 291 344 419 431 516 509 316 407 403 549 622 717 657 939 917 947 943 1011
0 0 0 0 0 0 0 74 0 0 0 0 0 0 0 56 53 67 74 89 199 200 139 168 246 211 92 227 323 327 498 552 433 415 456 433 570 634 665 704 757 810 960 933
0 0 0 0 0 0 0 0 0 0 0 0 0 0 0 2 38 33 28 7 0 23 137 123 228 239 248 82 172 281 499 483 514 502 537 497 485 669 598 742 709 714 873 823
0 0 0 0 0 0 0 0 0 0 0 0 0 0 0 2 39 21 0 0 11 28 30 104 83 195 352 200 83 194 444 522 479 464 559 518 434 624 720 632 658 789 861 1010
0 0 0 0 0 0 0 0 0 0 0 0 0 0 0 1 1 0 0 0 21 41 120 249 262 106 194 239 206 293 404 481 478 497 472 496 578 617 582 619 569 721 771 728
0 0 0 0 0 0 0 0 0 0 0 0 0 0 0 0 0 0 0 0 0 10 245 265 152 261 185 169 356 428 495 553 551 489 421 422 438 563 602 629 778 773 746 734
0 0 0 0 0 2 0 0 0 0 0 0 0 0 0 0 0 0 0 27 16 0 241 320 85 168 367 121 268 621 695 745 787 600 533 532 508 488 511 641 770 835 859 662
0 0 0 0 0 0 0 0 0 0 0 0 0 0 0 0 0 2 0 0 25 20 108 253 234 172 122 137 206 480 781 874 931 797 735 694 772 791 740 666 722 815 947 839
0 0 0 0 0 0 0 0 0 0 0 0 0 0 0 0 0 9 0 57 102 54 1 0 72 159 214 249 313 338 336 329 247 472 481 432 533 711 806 688 565 645 746 728
0 0 0 0 0 0 0 0 0 0 0 2 0 7 0 0 0 0 0 13 176 453 298 61 11 53 80 117 222 212 160 82 34 42 78 85 145 296 455 569 602 600 708 836
0 0 0 0 0 0 0 0 0 0 0 0 0 0 5 0 54 331 533 540 480 589 442 351 228 162 82 54 38 73 58 38 114 97 44 56 83 60 20 91 249 304 479 720
0 0 0 0 0 0 0 0 0 0 0 0 0 5 0 63 433 373 315 476 421 567 349 327 343 224 142 101 82 127 142 153 117 72 82 60 54 26 9 1 25 34 90 96
0 0 6 0 0 0 0 0 0 0 0 0 0 9 26 199 111 92 228 398 498 561 411 319 361 194 132 43 3 52 146 201 193 127 75 77 53 5 2 0 1 1 11 10
0 0 1 0 0 0 0 0 0 0 0 0 49 92 196 242 82 240 273 195 494 506 375 172 88 56 7 3 30 73 110 112 141 167 189 164 90 24 3 17 1 1 9 4
0 0 0 0 0 0 0 0 0 3 0 10 101 364 441 208 208 289 226 138 83 21 0 0 0 0 0 0 8 64 111 53 92 230 181 128 101 45 53 38 21 11 2 0
0 0 0 0 0 0 7 53 17 0 10 38 97 372 384 257 399 387 253 185 71 0 0 0 0 0 0 0 0 13 12 37 125 83 38 4 0 0 2 2 2 2 4 1
0 0 0 0 0 0 0 23 28 9 33 53 104 185 317 392 406 393 298 177 51 0 0 0 0 0 1 1 0 0 5 40 25 31 1 1 0 0 0 0 1 2 1 1
0 0 0 0 0 10 10 64 99 84 72 62 146 247 402 315 345 461 301 200 57 0 0 0 0 0 0 0 0 0 3 10 2 1 1 0 0 0 0 0 0 0 0 0
0 0 0 0 0 27 10 85 207 149 88 62 80 157 250 371 325 501 342 190 57 8 0 0 0 2 1 0 0 0 2 4 1 0 0 0 0 0 0 0 0 2 1 0
CIN
0 0 0 0 -39 0 -45 -32 -1 -1 -75 -52 -51 -47 -51 -109 -89 -85 -91 -58 -72 -66 -40 -67 -85 -78 -90 -92 -96 -90 -52 -58 -46 -47 -30 -32 -31 -36 -37 -34 -38 -57 -49 -49
0 0 0 0 0 0 0 0 0 -80 -98 -80 -76 -50 -80 -112 -83 -78 -87 -87 -82 -84 -59 -81 -82 -89 -94 -85 -100 -85 -68 -60 -46 -43 -39 -41 -34 -39 -31 -30 -33 -40 -36 -39
0 0 0 0 0 0 0 0 0 0 -94 -95 -60 -42 -61 -114 -148 -129 -125 -110 -84 -81 -90 -95 -93 -90 -97 -95 -101 -103 -83 -70 -42 -53 -55 -54 -48 -40 -38 -31 -29 -32 -33 -41
0 0 0 0 0 0 0 0 0 -13 -39 -10 -68 -7 -54 -94 -119 -161 -118 -127 -101 -111 -97 -124 -88 -89 -96 -102 -99 -104 -104 -89 -50 -43 -40 -38 -26 -21 -19 -20 -25 -36 -42 -37
0 0 0 0 0 0 0 0 -5 -63 -35 -40 -35 -14 -30 -106 -63 -110 -147 -157 -124 -148 -140 -88 -120 -97 -92 -101 -104 -109 -103 -93 -59 -55 -50 -31 -28 -21 -16 -27 -25 -35 -49 -52
0 0 0 0 0 0 0 -9 -79 -73 -33 -11 -26 -17 -15 -44 -56 -92 -140 -165 -210 -182 -123 -125 -109 -80 -100 -96 -105 -104 -96 -84 -77 -70 -55 -52 -42 -24 -23 -23 -26 -30 -29 -34
0 0 0 0 0 0 -56 -27 -3 -3 -3 -2 -72 -29 -14 -86 -154 -168 -172 -187 -198 -205 -186 -140 -106 -114 -109 -96 -99 -95 -97 -79 -89 -77 -59 -69 -41 -28 -22 -18 -18 -17 -24 -27
0 0 0 0 0 -9 -30 -53 -2 -4 0 0 -49 -9 -6 -144 -262 -288 -268 -262 -235 -218 -216 -142 -94 -114 -103 -103 -101 -96 -91 -81 -83 -77 -66 -53 -39 -30 -30 -24 -18 -17 -19 -21
0 0 0 0 0 0 0 -23 0 -1 0 0 0 0 0 -187 -202 -235 -238 -271 -225 -237 -242 -185 -125 -109 -118 -104 -108 -100 -103 -90 -86 -79 -69 -61 -42 -30 -30 -39 -31 -23 -40 -23
0 0 0 0 0 0 0 0 0 0 0 0 0 0 0 -10 -96 -199 -240 -168 0 -317 -230 -205 -134 -74 -56 -120 -108 -103 -97 -87 -89 -80 -74 -63 -50 -38 -35 -35 -29 -28 -28 -45
0 0 0 0 0 0 0 0 0 0 0 0 0 0 0 -22 -118 -150 0 0 -277 -192 -306 -212 -179 -88 -50 -95 -95 -125 -96 -101 -89 -86 -75 -61 -55 -39 -39 -37 -27 -27 -24 -38
0 0 0 0 0 0 0 0 0 0 0 0 0 0 0 -9 -12 0 0 0 -145 -280 -199 -144 -112 -134 -92 -77 -60 -97 -103 -88 -104 -85 -92 -78 -50 -42 -31 -32 -31 -32 -26 -21
0 0 0 0 0 0 0 0 0 0 0 0 0 0 0 0 0 0 0 0 0 -165 -129 -114 -127 -81 -98 -75 -53 -57 -86 -89 -99 -115 -103 -88 -75 -50 -35 -34 -30 -29 -33 -31
0 0 0 0 0 -5 0 0 0 0 0 0 0 0 0 0 0 0 0 -189 -187 0 -86 -39 -146 -97 -22 -96 -61 -41 -58 -64 -65 -85 -94 -90 -90 -74 -53 -45 -40 -30 -30 -22
0 0 0 0 0 0 0 0 0 0 0 0 0 0 0 0 0 -22 0 0 -171 -178 -103 -15 -54 -45 -57 -70 -47 -34 -14 -22 -33 -44 -56 -89 -85 -79 -72 -58 -53 -38 -29 -29
0 0 0 0 0 0 0 0 0 0 0 0 0 0 0 0 0 -192 0 -149 -113 -130 -2 0 -113 -38 -17 -10 -17 -23 -55 -51 -66 -44 -49 -95 -91 -72 -73 -80 -76 -50 -36 -27
0 0 0 0 0 0 0 0 0 0 0 -28 0 -23 0 0 0 0 0 -46 -100 -45 -58 -119 -219 -125 -63 -35 -29 -43 -58 -86 -117 -131 -133 -184 -168 -103 -80 -61 -64 -64 -43 -33
0 0 0 0 0 0 0 0 0 0 0 0 0 0 -80 0 -91 -122 -112 -86 -80 -68 -84 -86 -73 -104 -116 -100 -74 -92 -76 -94 -49 -59 -111 -155 -161 -137 -153 -112 -44 -60 -43 -18
0 0 0 0 0 0 0 0 0 0 0 0 0 -107 0 -191 -102 -98 -162 -132 -128 -94 -140 -145 -112 -131 -148 -142 -114 -42 -64 -110 -90 -64 -73 -67 -60 -34 -10 -47 -139 -143 -94 -74
0 0 -10 0 0 0 0 0 0 0 0 0 0 -105 -127 -135 -58 -90 -172 -143 -116 -95 -117 -152 -114 -146 -148 -188 -187 -106 -70 -39 -15 -52 -65 -81 -58 -75 -3 0 0 -29 -109 -132
0 0 -14 0 0 0 0 0 0 0 0 0 -86 -98 -113 -79 -106 -108 -160 -196 -114 -105 -127 -176 -226 -142 -188 -276 -286 -179 -181 -178 -140 -127 -71 -39 -50 -38 -21 -44 -3 -83 -1 -28
0 -23 0 0 0 0 0 0 0 -10 0 -63 -108 -119 -102 -133 -123 -111 -136 -184 -217 -226 0 0 0 0 0 0 -256 -202 -173 -198 -138 -67 -52 -79 -45 -72 -68 -52 -75 -50 -23 0
0 0 0 0 0 0 -95 -64 -50 0 -83 -123 -127 -137 -128 -106 -84 -87 -100 -123 -174 -4 0 0 0 0 0 0 0 -295 -280 -226 -91 -116 -155 -108 0 0 0 0 0 0 -228 -60
0 0 0 0 0 0 -20 -148 -142 -145 -108 -146 -136 -128 -117 -79 -79 -62 -65 -83 -128 0 0 0 0 0 0 -4 0 0 -299 -179 -158 -165 -33 0 0 0 0 0 0 0 0 0
0 0 0 0 0 -160 -156 -132 -110 -116 -159 -164 -153 -104 -83 -64 -49 -37 -47 -58 -77 0 0 0 0 0 0 -1 -8 0 -33 -114 -157 0 0 0 0 0 0 0 0 0 0 0
0 0 0 -13 -17 -28 -47 -120 -123 -104 -112 -141 -121 -118 -89 -51 -44 -40 -46 -58 -65 -77 0 0 0 -1 -1 0 -1 0 -29 -52 -33 0 0 0 0 0 0 0 0 0 0 0
Wind_Speed
11 12 10 7 5 14 11 11 15 15 11 11 14 20 21 19 22 15 19 26 25 25 23 23 25 24 24 23 24 24 23 30 29 27 26 25 25 24 21 20 20 21 22 21
11 17 15 15 13 16 15 16 16 14 12 13 15 20 21 17 19 21 20 22 19 26 24 22 19 23 24 25 25 25 23 29 31 30 28 25 25 26 23 21 21 22 22 23
12 16 17 14 13 14 19 19 18 18 12 16 16 17 15 9 19 19 22 22 21 23 21 21 19 21 25 27 27 25 26 28 29 33 27 25 23 21 22 23 24 25 23 23
14 18 19 19 25 21 20 24 20 14 12 16 15 15 18 17 20 25 21 23 23 20 18 27 20 21 25 26 28 28 26 25 28 35 33 29 31 30 26 26 26 25 23 21
11 9 12 21 27 19 22 18 13 9 14 17 15 18 16 17 21 25 25 27 19 17 16 23 23 24 25 24 26 28 27 24 22 33 36 34 32 30 26 23 23 26 23 23
23 16 18 20 19 16 12 13 11 12 16 18 18 19 18 16 17 19 18 23 13 11 17 24 29 22 23 25 26 24 29 27 21 17 35 35 34 29 27 24 22 25 25 24
15 19 16 13 12 11 14 13 16 18 18 20 18 18 22 18 19 21 22 22 21 17 5 14 22 19 18 16 25 23 24 29 28 18 28 33 35 30 31 26 25 24 25 26
7 19 10 15 20 16 14 21 22 23 25 23 16 20 19 18 19 20 21 23 25 26 7 10 14 9 10 12 17 19 26 31 29 27 27 30 36 31 29 27 24 28 28 28
9 14 17 18 15 15 18 21 19 18 19 22 18 21 23 15 16 18 21 22 22 22 19 7 8 8 13 13 10 10 15 36 32 27 31 30 23 38 34 32 31 31 30 28
11 13 12 9 11 14 18 13 20 23 25 28 18 18 18 16 12 15 19 21 23 22 20 18 15 7 9 14 14 19 16 38 35 29 35 36 16 39 37 35 34 32 31 30
6 11 10 11 15 12 13 16 16 16 19 24 23 18 16 19 13 14 18 20 21 22 22 21 20 13 9 11 26 32 33 24 39 30 26 36 33 34 37 35 36 34 31 29
6 12 15 16 16 17 16 15 14 22 18 18 20 19 17 17 14 14 20 20 20 22 25 25 24 21 12 11 21 31 37 21 22 25 24 30 35 34 37 37 36 35 34 32
4 14 14 13 15 15 18 16 17 16 16 14 17 18 15 14 12 15 19 18 16 22 25 26 27 26 17 11 21 28 35 16 24 19 25 27 29 36 37 38 37 34 36 34
4 14 12 10 11 13 15 15 13 14 14 14 13 18 12 10 8 11 15 15 16 21 25 23 22 19 15 11 14 16 19 21 21 21 21 27 27 28 33 32 37 31 33 36
14 18 16 15 14 16 19 13 6 6 10 11 15 14 15 13 7 7 11 13 14 19 22 21 16 13 8 10 14 16 21 22 23 26 27 25 28 31 28 26 28 31 34 37
17 17 17 20 19 20 21 19 9 8 9 8 12 17 15 15 11 7 7 11 13 15 20 19 14 12 10 8 10 12 14 18 20 20 24 26 28 28 29 26 24 26 30 34
17 15 17 23 21 18 24 19 9 8 6 8 11 15 13 13 8 7 7 9 10 13 13 16 14 12 11 9 9 11 14 15 18 21 23 25 28 33 31 29 27 28 29 31
19 17 21 22 17 24 22 19 16 6 10 3 13 13 10 10 10 10 11 13 10 9 11 12 12 10 10 10 11 11 15 17 20 23 24 23 25 23 23 25 26 26 28 30
26 21 20 19 21 24 21 17 14 11 14 5 4 10 8 9 10 10 11 12 9 9 10 10 10 11 11 11 11 11 14 15 16 19 21 23 22 23 21 23 26 28 29 30
18 23 22 20 21 25 23 16 14 14 20 7 2 4 3 4 6 8 10 9 8 9 9 10 11 11 14 16 16 12 14 15 15 16 18 19 17 16 19 23 22 29 33 35
19 18 21 22 22 25 21 13 10 15 20 6 3 3 5 3 11 7 9 9 9 9 11 12 14 16 18 19 20 20 21 22 23 22 22 21 20 23 22 20 21 19 22 25
21 17 21 24 24 27 13 9 13 15 13 7 4 3 4 6 6 7 8 8 8 10 12 13 15 18 20 20 20 20 19 20 21 20 19 17 17 16 16 15 15 15 17 15
27 17 15 21 26 19 5 15 11 12 11 8 3 3 4 5 6 6 7 8 8 10 13 16 19 20 21 20 20 21 21 21 19 16 15 14 13 13 14 13 13 14 14 15
25 17 18 15 20 18 7 10 10 12 11 4 4 5 6 5 6 5 6 6 7 10 13 16 19 20 21 20 19 19 21 20 15 13 13 13 13 13 14 14 15 15 15 16
25 18 14 18 15 12 11 6 5 6 6 5 6 6 5 5 6 5 5 6 7 10 14 16 19 20 19 18 17 18 18 15 13 11 12 13 14 14 14 14 15 15 14 14
21 18 20 21 9 9 4 4 4 4 4 6 6 6 6 7 6 5 6 7 8 10 13 16 17 18 17 17 17 17 17 14 13 13 14 14 14 14 13 12 13 14 13 13
Wind_Direction
296 286 281 296 318 305 313 323 313 308 345 338 124 185 201 143 159 138 158 172 172 175 169 172 181 177 174 167 166 162 158 184 216 223 224 228 227 227 236 243 241 231 226 233
296 276 279 288 288 288 294 294 304 317 319 299 291 209 192 135 150 162 160 169 168 182 176 170 161 170 174 172 170 167 161 175 185 218 223 228 228 229 236 244 243 234 237 233
288 290 282 280 282 284 277 282 292 296 314 290 297 283 299 328 171 167 176 179 176 181 178 172 164 169 176 180 179 170 170 174 174 212 231 235 238 242 244 240 234 230 236 236
300 279 276 265 255 261 271 260 291 305 304 299 294 308 295 298 285 236 185 185 184 181 180 188 172 170 175 175 185 180 173 166 172 202 215 225 222 220 232 229 228 224 237 248
327 316 292 260 247 254 262 287 302 313 297 291 296 296 307 302 283 268 260 214 185 180 178 182 178 178 177 169 172 180 176 167 160 188 214 221 222 224 235 242 244 234 247 250
225 292 273 256 265 260 287 295 303 304 294 293 292 291 295 311 310 296 296 281 175 174 180 183 187 175 175 174 175 167 182 175 163 158 200 222 218 231 234 245 252 247 247 253
292 268 280 279 276 270 269 274 280 282 286 285 295 295 286 310 302 290 287 297 298 255 197 175 180 173 170 168 174 169 169 183 178 160 175 185 225 233 228 242 248 253 253 250
40 253 292 275 258 265 268 257 264 273 273 278 302 291 300 314 313 304 307 303 293 275 187 181 181 204 193 181 172 169 178 190 180 176 177 181 218 239 242 249 255 243 245 247
30 293 276 271 279 279 276 264 278 286 289 285 300 299 301 323 322 321 313 312 306 295 289 275 191 208 253 242 216 191 255 215 233 179 187 186 177 211 231 236 240 236 244 252
339 320 306 308 291 297 282 295 279 271 265 262 309 317 321 325 331 331 325 315 309 301 296 289 283 241 218 251 249 256 257 219 226 244 222 208 185 218 226 237 240 245 245 246
340 323 330 306 288 299 293 283 286 292 286 284 297 320 324 317 333 331 328 322 321 311 298 296 288 283 234 246 252 245 244 255 216 246 254 224 239 242 235 242 240 241 247 252
298 312 309 295 294 292 291 293 297 279 298 304 311 321 326 320 333 344 325 325 323 319 303 295 292 286 266 209 247 243 235 256 256 255 257 250 235 242 236 240 242 242 245 247
274 290 306 309 299 296 282 292 295 308 317 325 322 328 336 339 346 337 333 339 348 320 315 303 293 282 268 211 182 246 235 254 256 260 258 258 256 239 239 236 238 248 240 247
275 287 294 302 309 306 296 298 309 315 320 331 332 325 354 2 8 351 344 348 356 332 322 319 305 296 272 244 236 246 252 256 260 261 263 260 261 262 254 257 246 257 256 247
275 275 286 298 307 301 295 303 321 331 329 334 338 334 340 350 24 13 3 354 2 349 343 341 335 324 308 272 257 253 258 255 259 260 260 263 262 260 264 266 263 259 257 253
268 278 281 284 295 293 289 290 311 322 333 341 339 326 334 338 1 32 24 1 352 353 343 344 341 339 340 317 281 262 264 263 264 271 268 266 265 267 266 267 267 267 265 264
262 273 278 281 293 295 284 286 296 309 329 338 328 330 335 342 11 28 31 7 356 347 1 351 337 316 303 331 304 287 278 272 272 274 276 275 274 270 268 266 267 268 269 271
259 268 277 280 287 281 290 290 292 302 323 323 323 331 339 350 0 5 352 342 5 9 5 333 345 323 341 331 311 316 299 285 281 280 279 284 281 285 274 266 268 269 270 272
258 262 272 277 274 282 286 289 297 308 314 309 311 328 345 351 358 5 356 342 3 12 16 5 353 345 341 323 354 327 310 306 300 289 286 285 285 281 277 274 270 269 270 273
260 257 261 271 273 272 279 298 303 314 309 341 6 349 25 20 8 7 7 7 7 355 359 9 357 331 305 282 284 330 306 297 300 302 300 303 306 294 284 277 284 273 273 267
253 256 252 263 272 274 284 302 312 298 311 5 22 45 89 49 336 40 42 33 16 352 330 337 323 302 295 286 281 294 283 283 277 276 281 285 287 269 278 288 288 292 286 276
246 245 255 259 265 269 292 297 286 306 327 354 18 66 79 3 37 65 46 37 15 346 330 333 323 304 292 298 296 294 294 293 288 290 293 301 300 299 303 305 310 308 303 304
249 251 250 257 261 282 276 292 303 321 325 333 354 69 77 55 77 70 57 45 22 359 338 318 310 301 298 305 299 293 292 292 295 305 311 315 314 320 315 323 317 314 321 311
255 259 257 264 267 273 273 294 312 320 329 23 38 91 95 82 85 69 48 34 18 345 332 327 315 303 301 302 303 305 292 296 310 313 313 313 319 320 319 318 322 318 313 312
256 250 248 266 268 274 276 307 1 351 32 41 66 77 76 77 83 64 34 13 352 339 328 320 315 311 308 306 309 309 307 315 323 315 315 318 317 315 318 325 323 324 326 325
253 255 251 254 244 280 162 117 68 40 64 88 78 62 66 78 59 34 8 358 349 340 328 319 317 313 309 308 307 308 310 318 320 309 313 313 312 313 319 326 328 335 339 343